Evansville, IN

3:06 AM CST on February 13, 2016 (GMT -0600)
Evansville Regional

Weather History for KEVV - November, 2010

Change the Weather History Date:

Wednesday, November 24, 2010

  Actual Average Record
Temperature  
Mean Temperature 48 °F 43 °F  
Max Temperature 64 °F 52 °F 70 °F (1966)
Min Temperature 31 °F 33 °F -1 °F (1950)
Degree Days  
Heating Degree Days 17 22  
Month to date heating degree days 395 416  
Since 1 July heating degree days 588 719  
Cooling Degree Days 0 0  
Month to date cooling degree days 2 0  
Year to date cooling degree days 1904 1395  
Moisture  
Dew Point 39 °F    
Average Humidity 84    
Maximum Humidity 93    
Minimum Humidity 75    
Precipitation  
Precipitation 1.95 in 0.15 in 1.95 in (2010)
Month to date precipitation 3.36 3.43  
Year to date precipitation 25.88 40.65  
Snow  
Snow 0.00 in 0.10 in 1.10 in (1971)
Month to date snowfall 0.0 0.1  
Since 1 July snowfall 0.0 0.3  
Since 1 September snowfall 0.0 0.3  
Snow Depth 0.00 in    
Sea Level Pressure  
Sea Level Pressure 29.97 in    
Wind  
Wind Speed 8 mph (East)    
Max Wind Speed 21 mph    
Max Gust Speed 26 mph    
Visibility 4 miles    
Events Fog , Rain    
T = Trace of Precipitation, MM = Missing Value Source: NWS Daily Summary

Daily Weather History Graph

Daily Weather History Graph

Search for Another Location

Airport or City:

Trip Planner

Search our weather history database for the weather conditions in past years. The results will help you decide how hot, cold, wet, or windy it might be!

Date:

Astronomy

Nov. 24, 2010 Rise Set
Actual Time 6:40 AM CST 4:32 PM CST
Civil Twilight 6:11 AM CST 5:01 PM CST
Nautical Twilight 5:39 AM CST 5:33 PM CST
Astronomical Twilight 5:07 AM CST 6:05 PM CST
Moon 7:20 PM CST (11/24) 9:26 AM CST (11/24)
Length of Visible Light 10h 49m
Length of Day
9h 52m
Waning Gibbous, 90% of the Moon is Illuminated
Nov 24
Waning Gibbous
Nov 28
Last Quarter
Dec 5
New
Dec 13
First Quarter
Dec 21
Full

Hourly Weather History & Observations

Time (CST) Temp. Windchill Dew Point Humidity Pressure Visibility Wind Dir Wind Speed Gust Speed Precip Events Conditions
12:54 AM 30.9 °F 25.2 °F 26.1 °F 82% 30.25 in 10.0 mi NE 5.8 mph - N/A   Clear
1:54 AM 33.1 °F 26.9 °F 27.0 °F 78% 30.22 in 10.0 mi ENE 6.9 mph - N/A   Clear
2:54 AM 34.0 °F 28.8 °F 27.0 °F 75% 30.20 in 10.0 mi ENE 5.8 mph - N/A   Clear
3:54 AM 36.0 °F 29.0 °F 28.0 °F 73% 30.18 in 10.0 mi ENE 9.2 mph - N/A   Scattered Clouds
4:54 AM 37.0 °F 31.6 °F 28.0 °F 70% 30.21 in 10.0 mi East 6.9 mph - 0.01 in Rain Light Rain
5:54 AM 36.0 °F 28.0 °F 28.9 °F 76% 30.15 in 10.0 mi East 11.5 mph - 0.02 in Rain Light Rain
6:54 AM 36.0 °F 28.5 °F 30.9 °F 82% 30.16 in 5.0 mi ENE 10.4 mph - 0.09 in Rain Rain
7:54 AM 36.0 °F 29.6 °F 30.9 °F 82% 30.17 in 3.0 mi East 8.1 mph - 0.13 in Rain Rain
8:54 AM 36.0 °F 29.0 °F 32.0 °F 86% 30.14 in 3.0 mi East 9.2 mph 18.4 mph 0.13 in Rain Heavy Rain
9:24 AM 37.4 °F 31.4 °F 33.8 °F 87% 30.11 in 2.5 mi East 8.1 mph - 0.17 in Rain Heavy Rain
9:34 AM 37.4 °F 30.8 °F 33.8 °F 87% 30.11 in 3.0 mi East 9.2 mph 17.3 mph 0.22 in Rain Heavy Rain
9:51 AM 37.4 °F 30.8 °F 33.8 °F 87% 30.10 in 1.5 mi East 9.2 mph - 0.33 in Rain Heavy Rain
9:54 AM 37.0 °F 29.8 °F 34.0 °F 89% 30.10 in 1.5 mi East 10.4 mph - 0.35 in Rain Heavy Rain
9:58 AM 37.4 °F 29.8 °F 33.8 °F 87% 30.08 in 3.0 mi East 11.5 mph - N/A Rain Heavy Rain
10:15 AM 37.4 °F 32.1 °F 35.6 °F 93% 30.09 in 1.5 mi ENE 6.9 mph - 0.15 in Rain Heavy Rain
10:24 AM 37.4 °F 31.4 °F 35.6 °F 93% 30.07 in 1.5 mi East 8.1 mph - 0.21 in Rain Heavy Rain
10:44 AM 37.4 °F 29.3 °F 35.6 °F 93% 30.03 in 1.5 mi East 12.7 mph - 0.34 in Rain Heavy Rain
10:54 AM 37.9 °F 30.9 °F 35.1 °F 89% 30.03 in 3.0 mi East 10.4 mph 18.4 mph 0.37 in Rain Rain
11:20 AM 37.4 °F 30.3 °F 35.6 °F 93% 30.02 in 2.5 mi East 10.4 mph 18.4 mph 0.10 in Rain Rain
11:27 AM 37.4 °F 30.3 °F 35.6 °F 93% 30.02 in 4.0 mi ESE 10.4 mph - 0.12 in Rain Rain
11:39 AM 39.2 °F 31.2 °F 35.6 °F 87% 29.98 in 2.5 mi ESE 13.8 mph - 0.19 in Rain Heavy Rain
11:46 AM 39.2 °F 31.2 °F 35.6 °F 87% 29.99 in 6.0 mi ESE 13.8 mph 18.4 mph 0.19 in Rain Light Rain
11:54 AM 39.0 °F 31.4 °F 36.0 °F 89% 29.98 in 2.0 mi ESE 12.7 mph 20.7 mph 0.28 in Rain Heavy Rain
12:12 PM 39.2 °F 32.5 °F 37.4 °F 93% 29.96 in 1.8 mi ESE 10.4 mph - 0.22 in Rain Heavy Rain
12:22 PM 39.2 °F 34.2 °F 37.4 °F 93% 29.97 in 2.5 mi Variable 6.9 mph 19.6 mph 0.28 in Rain Heavy Rain
12:29 PM 41.0 °F 32.5 °F 37.4 °F 87% 29.96 in 5.0 mi East 17.3 mph 25.3 mph 0.30 in Rain Light Rain
12:54 PM 42.1 °F 36.1 °F 39.0 °F 89% 29.97 in 6.0 mi ESE 10.4 mph 20.7 mph 0.31 in Rain Light Rain
1:15 PM 42.8 °F 39.3 °F 39.2 °F 87% 29.97 in 2.0 mi East 5.8 mph - 0.03 in Rain Light Rain
1:45 PM 42.8 °F 38.6 °F 39.2 °F 87% 29.94 in 3.0 mi East 6.9 mph - 0.04 in Rain Light Rain
1:54 PM 43.0 °F 37.7 °F 39.9 °F 89% 29.94 in 0.8 mi East 9.2 mph - 0.04 in Rain Light Rain
2:54 PM 43.0 °F 37.7 °F 41.0 °F 93% 29.91 in 0.8 mi East 9.2 mph - 0.02 in Rain Light Rain
3:01 PM 42.8 °F 38.6 °F 41.0 °F 93% 29.90 in 2.0 mi East 6.9 mph - 0.00 in Rain Light Rain
3:08 PM 42.8 °F 37.5 °F 41.0 °F 93% 29.89 in 0.8 mi East 9.2 mph - 0.00 in Rain Light Rain
3:54 PM 44.1 °F 39.5 °F 42.1 °F 93% 29.90 in 0.8 mi ESE 8.1 mph - 0.03 in Rain Heavy Rain
4:54 PM 46.0 °F 44.8 °F 44.1 °F 93% 29.88 in 0.5 mi NNE 3.5 mph - 0.06 in Fog , Rain Light Rain
4:56 PM 46.4 °F 45.2 °F 44.6 °F 93% 29.87 in 0.5 mi NE 3.5 mph - 0.00 in Fog , Rain Light Rain
5:54 PM 46.0 °F 41.9 °F 44.1 °F 93% 29.85 in 5.0 mi East 8.1 mph - 0.08 in Rain Light Rain
6:04 PM 46.4 °F 43.5 °F 44.6 °F 93% 29.86 in 8.0 mi ENE 5.8 mph - 0.00 in   Overcast
6:54 PM 46.9 °F - 45.0 °F 93% 29.85 in 3.0 mi East 5.8 mph - 0.00 in   Overcast
7:01 PM 46.4 °F 42.9 °F 44.6 °F 93% 29.84 in 2.0 mi East 6.9 mph - N/A   Overcast
7:09 PM 46.4 °F 41.9 °F 44.6 °F 93% 29.84 in 1.5 mi East 9.2 mph - 0.00 in Rain Light Rain
7:37 PM 48.2 °F - 46.4 °F 93% 29.83 in 1.0 mi East 5.8 mph - 0.02 in   Overcast
7:54 PM 48.0 °F - 46.0 °F 93% 29.83 in 1.0 mi East 5.8 mph - 0.02 in   Overcast
8:16 PM 48.2 °F - 46.4 °F 93% 29.82 in 1.5 mi East 5.8 mph - N/A   Overcast
8:46 PM 50.0 °F - 48.2 °F 94% 29.80 in 2.0 mi ESE 4.6 mph - N/A   Overcast
8:54 PM 50.0 °F - 48.9 °F 96% 29.80 in 2.5 mi ESE 4.6 mph - N/A   Overcast
9:54 PM 53.1 °F - 51.1 °F 93% 29.77 in 3.0 mi ESE 5.8 mph - N/A   Overcast
10:01 PM 53.6 °F - 51.8 °F 94% 29.76 in 4.0 mi ESE 5.8 mph - N/A   Overcast
10:54 PM 62.1 °F - 59.0 °F 90% 29.75 in 10.0 mi South 11.5 mph 19.6 mph N/A   Overcast
11:31 PM 64.4 °F - 59.0 °F 83% 29.75 in 10.0 mi South 16.1 mph 24.2 mph 0.01 in   Scattered Clouds
11:54 PM 64.0 °F - 59.0 °F 84% 29.75 in 10.0 mi South 12.7 mph 20.7 mph 0.01 in   Partly Cloudy